Regional Weather Roundup
Issued by NWS

Home | Current Version | Previous Version | Text Only | Print | Product List | Glossary On
Versions: 1 2 3 4 5 6 7 8 9 10 11 12 13 14 15 16 17 18 19 20 21 22 23 24 25 26 27 28 29 30 31 32 33 34 35 36 37 38 39 40 41 42 43 44 45 46 47 48 49 50
000
ASUS43 KOAX 221410
RWRNE

WEATHER ROUNDUP FOR NEBRASKA
NATIONAL WEATHER SERVICE OMAHA NE
900 AM CDT WED OCT 22 2014

NOTES: SATELLITE DATA IS BEING USED TO AUGMENT CLOUD COVER ABOVE
       12000 FEET.
       "FAIR" INDICATES FEW OR NO CLOUDS BELOW 12,000 FEET WITH NO
       SIGNIFICANT WEATHER AND/OR OBSTRUCTIONS TO VISIBILITY.

  * THESE STATIONS DO NOT REPORT WEATHER SUCH AS RAIN...SNOW OR FOG.

NEZ001>004-019>022-054>056-221500-
NEBRASKA PANHANDLE

CITY           SKY/WX    TMP DP  RH WIND       PRES   REMARKS
SCOTTSBLUFF    CLOUDY    49  45  86 W7        30.03R
ALLIANCE       CLOUDY    45  44  97 W5        30.00R
CHADRON        CLOUDY    50  34  54 W14       30.00R
KIMBALL        PTCLDY    47  41  80 NW9       30.04R
SIDNEY         PTCLDY    47  43  86 NW8       30.03R
$$

NEZ057>060-069>072-079>082-221500-
SOUTHWEST NEBRASKA

CITY           SKY/WX    TMP DP  RH WIND       PRES   REMARKS
NORTH PLATTE   CLOUDY    54  49  83 CALM      29.97R
IMPERIAL       CLOUDY    58  48  69 N12       30.00R
LEXINGTON      MOSUNNY   58  52  80 SW8       29.98R
MCCOOK         MOCLDY    58  50  75 SW6       29.97R
OGALLALA       CLOUDY    54  51  90 N3        29.98S
$$

NEZ005>010-023>029-035>040-094-221500-
NORTH CENTRAL NEBRASKA

CITY           SKY/WX    TMP DP  RH WIND       PRES   REMARKS
VALENTINE      LGT RAIN  58  48  69 NW9       29.96R
AINSWORTH      LGT RAIN  58  51  78 SW10      29.95R
BROKEN BOW     PTSUNNY   58  52  80 S8        29.97R
O`NEILL        CLOUDY    58  55  91 S12       29.94F
ORD            CLOUDY    57  54  89 SE8       29.95S
THEDFORD       CLOUDY    57  53  84 W8        29.98R
$$

NEZ041-046>049-061>064-073>077-083>087-221500-
SOUTH CENTRAL NEBRASKA

CITY           SKY/WX    TMP DP  RH WIND       PRES   REMARKS
GRAND ISLAND   PTSUNNY   59  54  83 S15       30.01S
AURORA         MOSUNNY   56  53  89 S8        30.03R FOG
HASTINGS       MOSUNNY   57  53  86 S9        30.01R
HEBRON         SUNNY     57  51  80 S9        30.06R
HOLDREGE       MOSUNNY   57  52  83 S14       29.98R
KEARNEY *      MOSUNNY   57  52  82 SE16      29.99R
YORK           SUNNY     55  48  76 S12       30.04S
$$

NEZ011>018-030>034-042>045-221500-
NORTHEAST NEBRASKA

CITY           SKY/WX    TMP DP  RH WIND       PRES   REMARKS
NORFOLK        MOSUNNY   56  46  69 SE18      30.00S
ALBION         PTSUNNY   55  49  80 SE12G17   29.99S
BLAIR          PTSUNNY   57  45  63 SE14G21   30.09R
COLUMBUS *     SUNNY     55  45  67 S13       30.05R
FREMONT        SUNNY     56  45  65 SE13G18   30.07S
TEKAMAH        SUNNY     55  45  68 SE14      30.08S
WAYNE          SUNNY     55  45  68 S24G30    30.02S
$$

NEZ050>053-065>068-078-088>093-221500-
SOUTHEAST NEBRASKA

CITY           SKY/WX    TMP DP  RH WIND       PRES   REMARKS
LINCOLN        SUNNY     56  46  69 S12       30.08S
OMAHA EPPLEY   MOSUNNY   55  44  66 SE17      30.11S
BEATRICE       SUNNY     56  47  70 SE14      30.08S
FALLS CITY     MOSUNNY   56  47  71 SE9       30.14R
NEBRASKA CITY  MOSUNNY   54  42  64 S13       30.13R
PLATTSMOUTH    SUNNY     54  43  67 SE13      30.11S
$$

NEZ044-045-051>053-067-221500-
OMAHA AREA

CITY           SKY/WX    TMP DP  RH WIND       PRES   REMARKS
OMAHA EPPLEY   MOSUNNY   55  44  66 SE17      30.11S
BLAIR          PTSUNNY   57  45  63 SE14G21   30.09R
FREMONT        SUNNY     56  45  65 SE13G18   30.07S
MILLARD        SUNNY     56  46  70 SE14      30.10S
OFFUTT AFB     SUNNY     55  49  81 SE13      30.11S
PLATTSMOUTH    SUNNY     54  43  67 SE13      30.11S
WAHOO          FAIR      55  45  68 SE9       30.08R
$$



USA.gov is the U.S. government's official web portal to all federal, state and local government web resources and services.